W7CBM Weather Reports


time (UTC)temp
C
wind
direction
speed
KPH
gust
KPH
rain 1hr
cm
rain 24hr
cm
rain mn
cm
humidity
%
barometer
mb
20260505070534 15 204 20.9 30.6 0.00 0.00 0.00 58 1009.6
20260505070034 15 200 6.4 30.6 0.00 0.00 0.00 57 1009.5
20260505065534 14 117 12.9 29.0 0.00 0.00 0.00 56 1009.1
20260505065034 14 236 24.1 30.6 0.00 0.00 0.00 56 1009.2
20260505064034 14 253 14.5 33.8 0.00 0.00 0.00 57 1009.4
20260505063534 14 215 8.0 33.8 0.00 0.00 0.00 59 1009.5
20260505063034 14 210 9.7 30.6 0.00 0.00 0.00 60 1009.5
20260505062534 14 167 16.1 37.0 0.00 0.00 0.00 60 1009.5
20260505062104 14 170 14.5 40.2 0.00 0.00 0.00 61 1009.7
20260505061604 14 169 17.7 40.2 0.00 0.00 0.00 60 1009.2
20260505061034 14 170 25.7 30.6 0.00 0.00 0.00 60 1009.3
20260505060534 15 255 14.5 32.2 0.00 0.00 0.00 59 1009.6
20260505060034 15 196 20.9 35.4 0.00 0.00 0.00 59 1009.5
20260505055034 15 174 8.0 33.8 0.00 0.00 0.00 57 1009.6
20260505054533 15 219 6.4 33.8 0.00 0.00 0.00 55 1009.5
20260505053533 15 201 17.7 35.4 0.00 0.00 0.00 54 1009.5
20260505053034 15 174 32.2 38.6 0.00 0.00 0.00 53 1009.4
20260505052533 15 188 19.3 38.6 0.00 0.00 0.00 52 1009.2
20260505052033 15 221 11.3 37.0 0.00 0.00 0.00 52 1009.1
20260505051603 15 190 17.7 35.4 0.00 0.00 0.00 52 1008.7
20260505051033 15 164 22.5 37.0 0.00 0.00 0.00 52 1008.7
20260505050533 16 184 16.1 38.6 0.00 0.00 0.00 52 1009.0
20260505041533 17 205 16.1 25.7 0.00 0.00 0.00 45 1008.0
20260505041033 17 202 14.5 22.5 0.00 0.00 0.00 44 1008.1
20260505040533 17 232 11.3 24.1 0.00 0.00 0.00 43 1008.1
20260505035533 17 192 16.1 20.9 0.00 0.00 0.00 42 1008.0
20260505035032 17 204 9.7 20.9 0.00 0.00 0.00 42 1007.8
20260505034533 18 196 8.0 25.7 0.00 0.00 0.00 41 1007.8
20260505034032 18 208 16.1 25.7 0.00 0.00 0.00 41 1007.7
20260505033603 18 211 16.1 19.3 0.00 0.00 0.00 40 1007.7
20260505033103 18 263 4.8 19.3 0.00 0.00 0.00 39 1007.6
20260505032603 18 210 4.8 17.7 0.00 0.00 0.00 38 1007.8
20260505032032 18 179 6.4 16.1 0.00 0.00 0.00 37 1007.8
20260505031602 18 233 6.4 16.1 0.00 0.00 0.00 37 1007.2
20260505031103 18 199 8.0 14.5 0.00 0.00 0.00 37 1007.2
20260505030602 18 204 4.8 14.5 0.00 0.00 0.00 37 1007.1
20260505025032 19 196 17.7 17.7 0.00 0.00 0.00 36 1007.3
20260505024032 19 209 4.8 17.7 0.00 0.00 0.00 35 1007.2
20260505023532 19 209 6.4 17.7 0.00 0.00 0.00 35 1007.2
20260505022602 20 206 6.4 16.1 0.00 0.00 0.00 35 1007.1
20260505022102 20 184 6.4 16.1 0.00 0.00 0.00 34 1007.1
20260505021602 20 188 6.4 16.1 0.00 0.00 0.00 34 1006.2
20260505021032 20 215 6.4 14.5 0.00 0.00 0.00 34 1006.1
20260505020532 20 174 9.7 16.1 0.00 0.00 0.00 34 1006.1
20260505020032 20 213 4.8 16.1 0.00 0.00 0.00 34 1006.2
20260505015532 20 163 6.4 14.5 0.00 0.00 0.00 33 1006.1
20260505015032 20 236 8.0 14.5 0.00 0.00 0.00 33 1006.1
20260505014102 20 207 14.5 16.1 0.00 0.00 0.00 32 1006.1
20260505013532 20 170 4.8 8.0 0.00 0.00 0.00 35 1006.2
20260505013031 20 55 0.0 1.6 0.00 0.00 0.00 36 1006.2
20260505012531 20 54 0.0 1.6 0.00 0.00 0.00 36 1006.3
20260505012101 20 55 0.0 3.2 0.00 0.00 0.00 35 1006.3
20260505011532 20 55 1.6 3.2 0.00 0.00 0.00 34 1005.4
20260505011032 20 54 1.6 3.2 0.00 0.00 0.00 33 1005.4
20260505010601 20 54 0.0 3.2 0.00 0.00 0.00 35 1005.5
20260505010031 20 55 1.6 3.2 0.00 0.00 0.00 35 1005.5
20260505005531 20 55 1.6 3.2 0.00 0.00 0.00 35 1005.5
20260505005032 20 54 0.0 3.2 0.00 0.00 0.00 35 1005.5
20260505004601 20 54 0.0 8.0 0.00 0.00 0.00 34 1005.5
20260505003531 20 55 4.8 19.3 0.00 0.00 0.00 34 1005.6
20260505003101 20 86 12.9 19.3 0.00 0.00 0.00 34 1005.6
20260505001601 20 27 4.8 20.9 0.00 0.00 0.00 33 1006.3
20260505001031 20 53 8.0 27.4 0.00 0.00 0.00 34 1006.3
20260505000601 20 21 3.2 27.4 0.00 0.00 0.00 34 1006.4
20260505000101 20 58 9.7 20.9 0.00 0.00 0.00 34 1006.5
20260504235601 20 48 6.4 22.5 0.00 0.00 0.00 35 1006.5
20260504235100 20 36 6.4 25.7 0.00 0.00 0.00 38 1006.3
20260504234601 19 68 19.3 25.7 0.00 0.00 0.00 38 1006.3
20260504234101 19 50 8.0 19.3 0.00 0.00 0.00 39 1006.3
20260504233601 19 3 6.4 20.9 0.00 0.00 0.00 39 1006.4
20260504233101 19 42 6.4 27.4 0.00 0.00 0.00 39 1006.5
20260504232600 19 7 16.1 27.4 0.00 0.00 0.00 38 1006.5
20260504232101 20 80 17.7 22.5 0.00 0.00 0.00 38 1006.4
20260504231601 20 7 12.9 22.5 0.00 0.00 0.00 39 1006.7
20260504231031 19 90 11.3 16.1 0.00 0.00 0.00 41 1006.8
20260504230531 19 82 12.9 12.9 0.00 0.00 0.00 41 1007.0
20260504230030 19 67 3.2 14.5 0.00 0.00 0.00 43 1007.2
20260504225600 19 53 6.4 14.5 0.00 0.00 0.00 43 1007.3
20260504225100 18 61 9.7 14.5 0.00 0.00 0.00 44 1006.9
20260504224600 18 1 9.7 14.5 0.00 0.00 0.00 42 1006.7
20260504224100 18 5 4.8 17.7 0.00 0.00 0.00 44 1006.8
20260504223600 18 307 8.0 25.7 0.00 0.00 0.00 43 1007.0
20260504223030 17 298 4.8 25.7 0.00 0.00 0.00 46 1006.9
20260504222600 17 294 9.7 32.2 0.00 0.00 0.00 50 1006.9
20260504222100 17 356 9.7 43.5 0.00 0.00 0.00 46 1007.0
20260504221600 18 29 19.3 43.5 0.00 0.00 0.00 45 1007.6
20260504220100 21 104 3.2 17.7 0.00 0.00 0.00 29 1007.7
20260504215559 21 157 9.7 20.9 0.00 0.00 0.00 29 1007.7
20260504215029 21 157 14.5 25.7 0.00 0.00 0.00 30 1007.7
20260504214529 21 166 12.9 25.7 0.00 0.00 0.00 30 1007.6
20260504214030 21 167 20.9 22.5 0.00 0.00 0.00 28 1007.2
20260504213100 22 169 8.0 19.3 0.00 0.00 0.00 27 1007.4
20260504212559 22 259 6.4 19.3 0.00 0.00 0.00 27 1007.3
20260504212059 22 205 3.2 9.7 0.00 0.00 0.00 27 1007.4
20260504211059 23 205 4.8 12.9 0.00 0.00 0.00 26 1007.2
20260504210559 23 296 1.6 6.4 0.00 0.00 0.00 26 1007.2
20260504205559 23 295 1.6 12.9 0.00 0.00 0.00 27 1007.2
20260504205059 23 296 4.8 12.9 0.00 0.00 0.00 26 1007.3
20260504204559 23 282 6.4 11.3 0.00 0.00 0.00 27 1007.3
20260504204059 23 281 1.6 11.3 0.00 0.00 0.00 26 1007.2
20260504203559 23 280 4.8 11.3 0.00 0.00 0.00 25 1007.3
20260504203059 23 232 3.2 11.3 0.00 0.00 0.00 25 1007.4
20260504202558 24 213 8.0 12.9 0.00 0.00 0.00 23 1007.6
20260504202059 24 255 3.2 12.9 0.00 0.00 0.00 24 1007.7
20260504201059 24 244 8.0 11.3 0.00 0.00 0.00 24 1007.8
20260504200059 24 232 3.2 16.1 0.00 0.00 0.00 24 1007.8
20260504195529 23 190 6.4 16.1 0.00 0.00 0.00 24 1007.5
20260504194559 23 154 6.4 9.7 0.00 0.00 0.00 24 1007.5
20260504193559 23 275 3.2 16.1 0.00 0.00 0.00 22 1007.8
20260504193058 24 271 14.5 17.7 0.00 0.00 0.00 22 1008.2
20260504192558 25 282 6.4 17.7 0.00 0.00 0.00 23 1008.1
20260504192058 25 288 9.7 16.1 0.00 0.00 0.00 23 1008.2
20260504191558 25 206 4.8 19.3 0.00 0.00 0.00 23 1007.4
20260504191058 25 193 16.1 19.3 0.00 0.00 0.00 22 1007.3
20260504190058 24 296 6.4 16.1 0.00 0.00 0.00 24 1007.3
20260504185558 24 179 12.9 14.5 0.00 0.00 0.00 24 1007.4
20260504185058 23 204 3.2 16.1 0.00 0.00 0.00 26 1007.4
20260504184558 23 205 6.4 19.3 0.00 0.00 0.00 24 1007.5
20260504184058 24 223 4.8 19.3 0.00 0.00 0.00 24 1007.6
20260504183058 23 224 4.8 19.3 0.00 0.00 0.00 24 1007.6
20260504182557 23 212 4.8 19.3 0.00 0.00 0.00 26 1007.7
20260504182057 23 192 6.4 16.1 0.00 0.00 0.00 24 1007.7
20260504181558 23 255 3.2 16.1 0.00 0.00 0.00 25 1008.1
20260504180557 23 194 11.3 19.3 0.00 0.00 0.00 26 1008.3
20260504180057 23 210 8.0 19.3 0.00 0.00 0.00 24 1008.3
20260504175557 23 255 4.8 17.7 0.00 0.00 0.00 26 1008.4
20260504175057 23 161 8.0 17.7 0.00 0.00 0.00 27 1008.5
20260504174558 23 209 9.7 20.9 0.00 0.00 0.00 26 1008.4
20260504173557 22 179 14.5 20.9 0.00 0.00 0.00 28 1008.2
20260504173057 22 253 4.8 22.5 0.00 0.00 0.00 28 1008.4
20260504172558 22 184 12.9 22.5 0.00 0.00 0.00 28 1008.4
20260504172057 22 207 8.0 17.7 0.00 0.00 0.00 29 1008.5
20260504171057 22 196 11.3 19.3 0.00 0.00 0.00 29 1009.1
20260504170557 22 184 0.0 19.3 0.00 0.00 0.00 29 1009.1
20260504151056 18 131 3.2 3.2 0.00 0.00 0.00 35 1010.1
20260504150556 18 131 1.6 3.2 0.00 0.00 0.00 32 1010.2
20260504141055 15 130 0.0 3.2 0.00 0.00 0.00 41 1010.1
20260504140555 15 132 1.6 3.2 0.00 0.00 0.00 43 1010.1
20260504130554 12 131 0.0 4.8 0.00 0.00 0.00 43 1010.0
20260504110554 15 12 3.2 6.4 0.00 0.00 0.00 32 1011.2
20260504100553 14 189 1.6 8.0 0.00 0.00 0.00 37 1010.8
20260504081552 13 282 6.4 9.7 0.00 0.00 0.00 41 1010.9
20260504081053 12 288 3.2 9.7 0.00 0.00 0.00 43 1010.5
20260504080553 11 290 0.0 12.9 0.00 0.00 0.00 46 1010.5